Retour au catalogue

CZ-6A DEB

ActifPO
NORAD 61825·DEBRIS·🇨🇳 China

Lancé Aug 6, 2024 depuis Taiyuan Satellite Launch Center

Loading…

Prochains Passages (prochaines 24 heures)

TLE

FraisSource: Space-Track

Époque: Sep 14, 2026, 00:03 UTC

1 61825U 24140ACR 26257.00228566  .00001496  00000-0  62383-3 0  9999
2 61825  89.0013 264.6216 0037025 252.9182 106.7954 14.25449461104252

Suivez CZ-6A DEB en temps réel avec AllMySat

Download on the App Store